This is the latest recevied weather packets stored in our database for station/object K6CED. If no packets are shown the sender has not sent any weather packets the latest 10 day(s).
| Time | Temp. | Humidity | Pressure | Rain* | Wind** | Luminosity | Snow |
|---|---|---|---|---|---|---|---|
| 1788376645 | 27.78° C | 37% | 1018.1 hPa | 0 mm | - | 817 W/m² | - |
| 1788376345 | 27.78° C | 34% | 1018.4 hPa | 0 mm | - | 825 W/m² | - |
| 1788376040 | 28.33° C | 33% | 1018.4 hPa | 0 mm | - | 828 W/m² | - |
| 1788375756 | 27.78° C | 35% | 1018.4 hPa | 0 mm | - | 831 W/m² | - |
| 1788375431 | 27.78° C | 36% | 1018.5 hPa | 0 mm | - | 832 W/m² | - |
| 1788375126 | 27.78° C | 36% | 1018.6 hPa | 0 mm | - | 830 W/m² | - |
| 1788374821 | 27.78° C | 37% | 1018.5 hPa | 0 mm | - | 827 W/m² | - |
| 1788374516 | 27.78° C | 38% | 1018.5 hPa | 0 mm | - | 824 W/m² | - |
| 1788374212 | 27.22° C | 40% | 1018.6 hPa | 0 mm | - | 820 W/m² | - |
| 1788373909 | 27.22° C | 39% | 1018.7 hPa | 0 mm | - | 814 W/m² | - |
| 1788373604 | 27.78° C | 34% | 1018.9 hPa | 0 mm | - | 808 W/m² | - |
| 1788373301 | 27.22° C | 38% | 1018.6 hPa | 0 mm | - | 799 W/m² | - |
| 1788372997 | 26.67° C | 40% | 1018.8 hPa | 0 mm | - | 790 W/m² | - |
| 1788372696 | 26.67° C | 41% | 1019 hPa | 0 mm | - | 780 W/m² | - |
| 1788372395 | 25.56° C | 42% | 1019 hPa | 0 mm | - | 769 W/m² | - |
| 1788372092 | 25.56° C | 43% | 1018.8 hPa | 0 mm | - | 759 W/m² | - |
| 1788371791 | 26.11° C | 42% | 1019 hPa | 0 mm | - | 746 W/m² | - |
| 1788371487 | 26.11° C | 42% | 1018.9 hPa | 0 mm | - | 733 W/m² | - |
| 1788371183 | 25.56° C | 43% | 1019 hPa | 0 mm | - | 717 W/m² | - |
| 1788370879 | 25.56° C | 43% | 1018.9 hPa | 0 mm | - | 701 W/m² | - |
| 1788370574 | 25° C | 48% | 1018.9 hPa | 0 mm | - | 684 W/m² | - |
| 1788370269 | 25° C | 48% | 1018.9 hPa | 0 mm | - | 669 W/m² | - |
| 1788369968 | 25° C | 49% | 1019 hPa | 0 mm | - | 656 W/m² | - |
| 1788369663 | 23.89° C | 51% | 1019 hPa | 0 mm | - | 643 W/m² | - |
| 1788369359 | 23.33° C | 53% | 1019.4 hPa | 0 mm | - | 636 W/m² | - |
* Rain latest hour (hover to see other rain measurements)
** Current wind speed in m/s (hover to see current wind gust speed)